Regional Weather Roundup
Issued by NWS

Home | Current Version | Previous Version | Text Only | Print | Product List | Glossary Off
Versions: 1 2 3 4 5 6 7 8 9 10 11 12 13 14 15 16 17 18 19 20 21 22 23 24 25 26 27 28 29 30 31 32 33 34 35 36 37 38 39 40 41 42 43 44 45 46 47 48 49 50

303
ASUS43 KLOT 230708
RWRIL

ILLINOIS REGIONAL WEATHER ROUNDUP
NATIONAL WEATHER SERVICE CHICAGO/ROMEOVILLE IL
200 AM CDT MON APR 23 2018

NOTE: "FAIR" INDICATES FEW OR NO CLOUDS BELOW 12,000 FEET WITH NO
SIGNIFICANT WEATHER AND/OR OBSTRUCTIONS TO VISIBILITY.

* THESE STATIONS ARE NOT UNDER NWS QUALITY CONTROL. THEY ALSO MAY NOT
  REPORT WEATHER SUCH AS PRECIPITATION OR FOG.

ILZ001-002-007-009-015-016-024-230800-
NORTHWEST ILLINOIS

CITY           SKY/WX    TMP DP  RH WIND       PRES   REMARKS
MOLINE         FAIR      45  29  53 E9        30.18F
STERLING*      FAIR      43  29  57 E10       30.21F
SAVANNA*       FAIR      45  29  54 NE6       30.22S
$$

ILZ003-004-008-010-011-017-018-230800-
NORTH CENTRAL ILLINOIS

CITY           SKY/WX    TMP DP  RH WIND       PRES   REMARKS
ROCKFORD       CLOUDY    43  26  51 NE6       30.25S
FREEPORT*      FAIR      40  29  63 NE3       30.25S
ROCHELLE*      FAIR      41  29  62 NE8       30.22F
DE KALB*       FAIR      40  28  63 NE6       30.22F
PERU*          FAIR      45  31  58 NE8       30.19F
$$

ILZ005-006-012>014-019>023-230800-
NORTHEAST ILLINOIS

CITY           SKY/WX    TMP DP  RH WIND       PRES   REMARKS
CHICAGO-OHARE  MOCLDY    46  28  49 NE6       30.21F
CHICAGO-MIDWAY MOCLDY    44  31  60 NE6       30.21F
AURORA         FAIR      43  28  55 NE7       30.20F
LANSING*       FAIR      41  34  76 NE5       30.20F
JOLIET*        FAIR      45  32  60 N5        30.19F
WAUKEGAN       FAIR      38  30  73 N5        30.24S WCI  34
DUPAGE AIRPORT FAIR      41  29  62 NE5       30.21F
KANKAKEE*      FAIR      44  28  53 E8        30.19S
WHEELING       FAIR      44  31  60 NE3       30.24F
MORRIS*        FAIR      41  31  69 N7        30.19F
ROMEOVILLE*    FAIR      43  31  63 NE9       30.20F
NORTHERLY ISL    N/A     42  32  67 N5          N/A
$$

LMZ740>746-230800-
SOUTHERN LAKE MICHIGAN

STATION/POSITION SKY/WX   TEMP    WIND        PRES    VSBY  WAVE
                          AIR SEA DIR/SP/G                  HT/PER
                          (F)     (DEG/KT/KT) (MB)    (MI)  (FT/S)
HARRISON CRIB              45      80/  9/  9   N/A
BURNHAM HARBOR             42     350/  4/  5   N/A
CALUMET HARBOR             42      10/  5/  6 1022.4F
BURNS HARBOR               49      90/  8/ 11 1023.4F
MICHIGAN CITY              49      70/  9/  9   N/A
$$

ILZ025>027-034>036-040-047-049-050-058-095>099-230800-
WEST-CENTRAL ILLINOIS

CITY           SKY/WX    TMP DP  RH WIND       PRES   REMARKS
QUINCY         CLOUDY    54  33  45 NE10      30.10S
GALESBURG*     FAIR      50  32  50 NE12      30.17F
MACOMB*        PTCLDY    47  32  54 NE10      30.16F
JACKSONVILLE*  CLOUDY    54  33  44 NE13      30.08F
PITTSFIELD*    CLOUDY    55  35  45 NE8       30.09F
$$

ILZ028>032-037-038-041>044-048-051>054-059>061-230800-
CENTRAL ILLINOIS

CITY           SKY/WX    TMP DP  RH WIND       PRES   REMARKS
PONTIAC        FAIR      45  30  56 NE10      30.18S
BLOOMINGTON    FAIR      47  31  53 NE13      30.15F
DECATUR        CLOUDY    53  32  44 NE16      30.08F
PEORIA         FAIR      51  29  42 E15G24    30.15F
LACON*         FAIR      46  30  52 NE3       30.17F
LINCOLN*       CLOUDY    54  32  43 NE16      30.10F
SPRINGFIELD    CLOUDY    56  33  42 NE12      30.09F
TAYLORVILLE    CLOUDY    55  32  41 NE12      30.07F
$$

ILZ033-039-045-046-055>057-062-063-230800-
EAST-CENTRAL ILLINOIS

CITY           SKY/WX    TMP DP  RH WIND       PRES   REMARKS
CHAMPAIGN      FAIR      50  30  46 NE15      30.11F
DANVILLE*      FAIR      48  29  48 NE8       30.11F
RANTOUL*       FAIR      51  31  46 NE14G20   30.13F
MATTOON        CLOUDY    54  35  48 E17       30.05F
PARIS*         MOCLDY    52  33  48 NE15      30.09F
$$

ILZ079-100>102-230800-
SOUTHWEST ILLINOIS

CITY           SKY/WX    TMP DP  RH WIND       PRES   REMARKS
ALTON          CLOUDY    54  42  63 N3        30.02F
BELLEVILLE     CLOUDY    55  44  66 NE6       29.99F
CAHOKIA*       CLOUDY    55  44  66 NE7       30.00F
SPARTA*        DRIZZLE   53  50  89 NE13      29.98F
$$

ILZ064>066-069>071-074>076-080>082-084>086-088>090-092>094-230800-
SOUTH-CENTRAL ILLINOIS

CITY           SKY/WX    TMP DP  RH WIND       PRES   REMARKS
CARBONDALE     LGT RAIN  53  49  86 NE15G22   29.93F
CAIRO*         LGT RAIN  56  55  97 NE20      29.82F
EFFINGHAM*     MOCLDY    57  38  50 N6        30.04F
MARION         LGT RAIN  52  50  93 NE14G22   29.94F
MT. VERNON     LGT RAIN  53  45  74 NE10      29.98F
CENTRALIA*     LGT RAIN  57  41  56 NE7       29.98F
SALEM*         CLOUDY    59  34  39 NE6       30.00F
METROPOLIS*    RAIN      55  54  94 NE14G24   29.84F
$$

ILZ067-068-072-073-078-083-087-091-230800-
SOUTHEAST ILLINOIS

CITY           SKY/WX    TMP DP  RH WIND       PRES   REMARKS
LAWRENCEVILLE  MOCLDY    59  33  37 NE10      30.02F
FLORA*         CLOUDY    58  39  49 NE7       30.01F
FAIRFIELD*     LGT RAIN  54  43  67 NE8       29.98F
HARRISBURG*    LGT RAIN  52  48  87 NE15G21   29.95F
ROBINSON*      FAIR      58  34  39 NE10      30.04F
CARMI*         LGT RAIN  53  46  79 NE13      29.97F
$$

ABBREVIATIONS USED IN REMARKS
   TC - TEMPERATURE IN CELSIUS
  WCI - WIND CHILL INDEX
   HX - HEAT INDEX
  VSB - VISIBILITY
$$





USA.gov is the U.S. government's official web portal to all federal, state and local government web resources and services.